Terminal Aerodrome Forecast
Issued by NWS Lake Charles, LA

Home | Current Version | Previous Version | Text Only | Print | Product List | Glossary On
Versions: 1 2 3 4 5 6 7 8 9 10 11 12 13 14 15
243
FTUS44 KLCH 251120
TAFAEX
TAF
KAEX 251120Z 2512/2612 15005KT P6SM BKN025
      TEMPO 2512/2515 BKN015
     FM251500 17010KT P6SM BKN035
     FM260100 15008KT P6SM SCT250
     FM260700 15005KT P6SM BKN015=

USA.gov is the U.S. government's official web portal to all federal, state and local government web resources and services.